Time,TemperatureF,DewpointF,PressureIn,WindDirection,WindDirectionDegrees,WindSpeedMPH,WindSpeedGustMPH,Humidity,HourlyPrecipIn,Conditions,Clouds,dailyrainin,SoftwareType,DateUTC
2013-03-01 00:00:00,58.8,47.8,29.97,NW,313,0.0,7.0,67,0.00,,,0.00,meteohub,2013-03-01 05:00:00,
2013-03-01 00:01:00,58.8,47.8,29.97,NW,313,0.0,5.0,67,0.00,,,0.00,meteohub,2013-03-01 05:01:00,
2013-03-01 00:04:00,58.8,47.8,29.97,NW,313,0.0,5.0,67,0.00,,,0.00,meteohub,2013-03-01 05:04:00,
2013-03-01 00:06:00,58.8,48.2,29.97,NW,313,1.0,5.0,68,0.00,,,0.00,meteohub,2013-03-01 05:06:00,
2013-03-01 00:11:00,58.8,48.2,29.97,NW,313,2.0,4.0,68,0.00,,,0.00,meteohub,2013-03-01 05:11:00,
2013-03-01 00:16:00,58.8,47.8,29.97,NW,313,0.0,4.0,67,0.00,,,0.00,meteohub,2013-03-01 05:16:00,
2013-03-01 00:21:00,59.0,48.0,29.97,NW,309,1.0,5.0,67,0.00,,,0.00,meteohub,2013-03-01 05:21:00,
2013-03-01 00:26:00,59.0,48.0,29.97,NW,313,5.0,5.0,67,0.00,,,0.00,meteohub,2013-03-01 05:26:00,
2013-03-01 00:31:00,59.0,48.0,29.97,NW,313,2.0,5.0,67,0.00,,,0.00,meteohub,2013-03-01 05:31:00,
2013-03-01 00:36:00,58.8,48.2,29.97,WNW,288,2.0,5.0,68,0.00,,,0.00,meteohub,2013-03-01 05:36:00,
2013-03-01 00:41:00,59.0,48.4,29.97,WNW,292,5.0,7.0,68,0.00,,,0.00,meteohub,2013-03-01 05:41:00,
2013-03-01 00:46:00,59.0,48.0,29.97,NW,324,6.0,7.0,67,0.00,,,0.00,meteohub,2013-03-01 05:46:00,
2013-03-01 00:51:00,59.0,48.0,29.97,WNW,300,2.0,7.0,67,0.00,,,0.00,meteohub,2013-03-01 05:51:00,
2013-03-01 00:57:00,59.2,48.6,29.97,NW,306,2.0,6.0,68,0.00,,,0.00,meteohub,2013-03-01 05:57:00,
2013-03-01 01:02:00,59.0,48.4,29.97,WNW,302,2.0,6.0,68,0.00,,,0.00,meteohub,2013-03-01 06:02:00,
2013-03-01 01:07:00,59.0,48.4,29.97,WNW,301,1.0,7.0,68,0.00,,,0.00,meteohub,2013-03-01 06:07:00,
2013-03-01 01:12:00,58.8,48.7,29.98,NW,321,2.0,7.0,69,0.00,,,0.00,meteohub,2013-03-01 06:12:00,
2013-03-01 01:17:00,59.0,48.9,29.98,West,279,1.0,7.0,69,0.00,,,0.00,meteohub,2013-03-01 06:17:00,
2013-03-01 01:22:00,59.2,49.1,29.97,WNW,292,5.0,7.0,69,0.00,,,0.00,meteohub,2013-03-01 06:22:00,
2013-03-01 01:27:00,59.2,49.1,29.97,WNW,295,4.0,7.0,69,0.00,,,0.00,meteohub,2013-03-01 06:27:00,
2013-03-01 01:32:00,59.2,49.1,29.97,WNW,294,5.0,8.0,69,0.00,,,0.00,meteohub,2013-03-01 06:32:00,
2013-03-01 01:37:00,59.2,49.1,29.97,NW,317,4.0,8.0,69,0.00,,,0.00,meteohub,2013-03-01 06:37:00,
2013-03-01 01:42:00,59.2,49.1,29.96,NW,314,4.0,8.0,69,0.00,,,0.00,meteohub,2013-03-01 06:42:00,
2013-03-01 01:47:00,59.0,48.9,29.96,NW,315,2.0,7.0,69,0.00,,,0.00,meteohub,2013-03-01 06:47:00,
2013-03-01 01:52:00,58.8,48.7,29.96,NW,315,3.0,6.0,69,0.00,,,0.00,meteohub,2013-03-01 06:52:00,
2013-03-01 01:58:00,58.8,48.7,29.96,WNW,302,0.0,7.0,69,0.00,,,0.00,meteohub,2013-03-01 06:58:00,
2013-03-01 02:03:00,58.8,48.7,29.96,NW,315,6.0,7.0,69,0.00,,,0.00,meteohub,2013-03-01 07:03:00,
2013-03-01 02:08:00,58.8,48.2,29.96,WNW,287,2.0,7.0,68,0.00,,,0.00,meteohub,2013-03-01 07:08:00,
2013-03-01 02:13:00,58.8,48.2,29.96,NW,316,5.0,7.0,68,0.00,,,0.00,meteohub,2013-03-01 07:13:00,
2013-03-01 02:18:00,58.8,48.2,29.96,NW,315,0.0,8.0,68,0.00,,,0.00,meteohub,2013-03-01 07:18:00,
2013-03-01 02:24:00,58.6,48.6,29.95,WNW,282,0.0,8.0,69,0.00,,,0.00,meteohub,2013-03-01 07:24:00,
2013-03-01 02:29:00,58.5,48.4,29.95,WNW,293,4.0,8.0,69,0.00,,,0.00,meteohub,2013-03-01 07:29:00,
2013-03-01 02:34:00,58.5,48.4,29.95,NW,315,6.0,6.0,69,0.00,,,0.00,meteohub,2013-03-01 07:34:00,
2013-03-01 02:39:00,58.6,48.6,29.95,NW,318,1.0,9.0,69,0.00,,,0.00,meteohub,2013-03-01 07:39:00,
2013-03-01 02:44:00,58.5,48.4,29.95,NW,315,4.0,9.0,69,0.00,,,0.00,meteohub,2013-03-01 07:44:00,
2013-03-01 02:49:00,58.5,48.4,29.95,NW,315,2.0,9.0,69,0.00,,,0.00,meteohub,2013-03-01 07:49:00,
2013-03-01 02:54:00,58.5,48.4,29.95,NW,305,0.0,6.0,69,0.00,,,0.00,meteohub,2013-03-01 07:54:00,
2013-03-01 03:00:00,58.5,48.4,29.95,NW,318,0.0,6.0,69,0.00,,,0.00,meteohub,2013-03-01 08:00:00,
2013-03-01 03:05:00,58.3,48.6,29.94,NW,318,0.0,6.0,70,0.00,,,0.00,meteohub,2013-03-01 08:05:00,
2013-03-01 03:10:00,58.3,48.6,29.95,NW,318,1.0,5.0,70,0.00,,,0.00,meteohub,2013-03-01 08:10:00,
2013-03-01 03:15:00,58.3,48.6,29.94,NW,315,0.0,5.0,70,0.00,,,0.00,meteohub,2013-03-01 08:15:00,
2013-03-01 03:20:00,58.1,48.7,29.94,NW,315,0.0,5.0,71,0.00,,,0.00,meteohub,2013-03-01 08:20:00,
2013-03-01 03:25:00,57.9,48.6,29.95,NW,314,0.0,5.0,71,0.00,,,0.00,meteohub,2013-03-01 08:25:00,
2013-03-01 03:30:00,57.9,48.6,29.94,NW,314,0.0,4.0,71,0.00,,,0.00,meteohub,2013-03-01 08:30:00,
2013-03-01 03:36:00,57.7,48.4,29.94,NW,314,0.0,4.0,71,0.00,,,0.00,meteohub,2013-03-01 08:36:00,
2013-03-01 03:41:00,57.7,48.7,29.94,NW,314,0.0,4.0,72,0.00,,,0.00,meteohub,2013-03-01 08:41:00,
2013-03-01 03:46:00,57.6,48.6,29.94,NW,314,0.0,4.0,72,0.00,,,0.00,meteohub,2013-03-01 08:46:00,
2013-03-01 03:51:00,57.4,48.4,29.94,NW,314,0.0,1.0,72,0.00,,,0.00,meteohub,2013-03-01 08:51:00,
2013-03-01 03:56:00,57.2,48.6,29.94,NW,314,0.0,1.0,73,0.00,,,0.00,meteohub,2013-03-01 08:56:00,
2013-03-01 04:01:00,57.0,48.4,29.94,NW,314,0.0,0.0,73,0.00,,,0.00,meteohub,2013-03-01 09:01:00,
2013-03-01 04:07:00,56.8,48.2,29.94,NW,314,0.0,0.0,73,0.00,,,0.00,meteohub,2013-03-01 09:07:00,
2013-03-01 04:12:00,56.8,48.6,29.94,NW,314,0.0,0.0,74,0.00,,,0.00,meteohub,2013-03-01 09:12:00,
2013-03-01 04:17:00,56.7,48.4,29.94,NW,314,0.0,0.0,74,0.00,,,0.00,meteohub,2013-03-01 09:17:00,
2013-03-01 04:22:00,56.5,48.4,29.94,NW,314,0.0,0.0,74,0.00,,,0.00,meteohub,2013-03-01 09:22:00,
2013-03-01 04:27:00,56.3,48.6,29.94,NW,314,0.0,0.0,75,0.00,,,0.00,meteohub,2013-03-01 09:27:00,
2013-03-01 04:33:00,56.1,48.4,29.94,NW,314,0.0,0.0,75,0.00,,,0.00,meteohub,2013-03-01 09:33:00,
2013-03-01 04:38:00,55.9,48.6,29.94,NW,314,0.0,0.0,76,0.00,,,0.00,meteohub,2013-03-01 09:38:00,
2013-03-01 04:43:00,55.9,48.2,29.94,NW,314,0.0,0.0,75,0.00,,,0.00,meteohub,2013-03-01 09:43:00,
2013-03-01 04:48:00,55.8,48.0,29.94,NW,314,0.0,1.0,75,0.00,,,0.00,meteohub,2013-03-01 09:48:00,
2013-03-01 04:53:00,55.8,48.0,29.94,NW,314,0.0,2.0,75,0.00,,,0.00,meteohub,2013-03-01 09:53:00,
2013-03-01 04:59:00,55.8,48.0,29.94,NW,314,0.0,2.0,75,0.00,,,0.00,meteohub,2013-03-01 09:59:00,
2013-03-01 05:04:00,55.8,48.0,29.94,NW,314,0.0,2.0,75,0.00,,,0.00,meteohub,2013-03-01 10:04:00,
2013-03-01 05:09:00,55.8,48.0,29.95,NW,314,0.0,2.0,75,0.00,,,0.00,meteohub,2013-03-01 10:09:00,
2013-03-01 05:14:00,55.6,47.8,29.96,NW,315,0.0,2.0,75,0.00,,,0.00,meteohub,2013-03-01 10:14:00,
2013-03-01 05:19:00,55.4,47.7,29.96,NW,317,0.0,4.0,75,0.00,,,0.00,meteohub,2013-03-01 10:19:00,
2013-03-01 05:25:00,55.0,47.3,29.96,NW,319,0.0,4.0,75,0.00,,,0.00,meteohub,2013-03-01 10:25:00,
2013-03-01 05:30:00,54.7,46.9,29.96,NW,321,0.0,4.0,75,0.00,,,0.00,meteohub,2013-03-01 10:30:00,
2013-03-01 05:35:00,54.3,46.6,29.96,NNW,341,1.0,4.0,75,0.00,,,0.00,meteohub,2013-03-01 10:35:00,
2013-03-01 05:40:00,54.1,46.0,29.96,North,355,0.0,4.0,74,0.00,,,0.00,meteohub,2013-03-01 10:40:00,
2013-03-01 05:46:00,54.0,45.9,29.96,North,350,0.0,4.0,74,0.00,,,0.00,meteohub,2013-03-01 10:46:00,
2013-03-01 05:51:00,53.8,45.3,29.96,North,350,0.0,5.0,73,0.00,,,0.00,meteohub,2013-03-01 10:51:00,
2013-03-01 05:56:00,53.4,44.6,29.97,North,9,1.0,5.0,72,0.00,,,0.00,meteohub,2013-03-01 10:56:00,
2013-03-01 06:02:00,53.4,44.2,29.97,NNE,21,0.0,7.0,71,0.00,,,0.00,meteohub,2013-03-01 11:02:00,
2013-03-01 06:07:00,53.2,43.7,29.97,NNE,18,0.0,7.0,70,0.00,,,0.00,meteohub,2013-03-01 11:07:00,
2013-03-01 06:12:00,53.1,43.5,29.97,NNE,12,0.0,7.0,70,0.00,,,0.00,meteohub,2013-03-01 11:12:00,
2013-03-01 06:17:00,53.1,43.5,29.98,NNE,12,5.0,6.0,70,0.00,,,0.00,meteohub,2013-03-01 11:17:00,
2013-03-01 06:22:00,52.9,43.3,29.98,NNE,15,5.0,6.0,70,0.00,,,0.00,meteohub,2013-03-01 11:22:00,
2013-03-01 06:27:00,52.7,43.2,29.98,NNE,32,1.0,6.0,70,0.00,,,0.00,meteohub,2013-03-01 11:27:00,
2013-03-01 06:32:00,52.5,42.6,29.98,NNE,30,1.0,6.0,69,0.00,,,0.00,meteohub,2013-03-01 11:32:00,
2013-03-01 06:37:00,52.3,42.1,29.98,NE,34,1.0,7.0,68,0.00,,,0.00,meteohub,2013-03-01 11:37:00,
2013-03-01 06:42:00,52.3,42.1,29.98,NNE,30,0.0,9.0,68,0.00,,,0.00,meteohub,2013-03-01 11:42:00,
2013-03-01 06:47:00,52.2,41.9,29.98,NNE,29,0.0,9.0,68,0.00,,,0.00,meteohub,2013-03-01 11:47:00,
2013-03-01 06:52:00,52.2,41.9,29.98,NNE,20,3.0,9.0,68,0.00,,,0.00,meteohub,2013-03-01 11:52:00,
2013-03-01 06:57:00,52.0,41.7,29.98,NNE,30,2.0,6.0,68,0.00,,,0.00,meteohub,2013-03-01 11:57:00,
2013-03-01 07:02:00,51.8,41.5,29.99,NNE,17,0.0,8.0,68,0.00,,,0.00,meteohub,2013-03-01 12:02:00,
2013-03-01 07:07:00,51.6,41.4,29.99,NNE,17,1.0,8.0,68,0.00,,,0.00,meteohub,2013-03-01 12:07:00,
2013-03-01 07:12:00,51.6,41.4,29.99,NNE,17,0.0,6.0,68,0.00,,,0.00,meteohub,2013-03-01 12:12:00,
2013-03-01 07:17:00,51.6,41.4,29.99,NNE,17,0.0,6.0,68,0.00,,,0.00,meteohub,2013-03-01 12:17:00,
2013-03-01 07:22:00,51.6,41.4,29.99,NNE,17,2.0,5.0,68,0.00,,,0.00,meteohub,2013-03-01 12:22:00,
2013-03-01 07:27:00,51.6,41.0,29.99,NNE,17,0.0,5.0,67,0.00,,,0.00,meteohub,2013-03-01 12:27:00,
2013-03-01 07:32:00,51.6,41.4,29.99,NNE,17,0.0,5.0,68,0.00,,,0.00,meteohub,2013-03-01 12:32:00,
2013-03-01 07:37:00,51.6,41.0,30.00,NNE,17,2.0,4.0,67,0.00,,,0.00,meteohub,2013-03-01 12:37:00,
2013-03-01 07:42:00,51.8,41.2,30.00,NNE,17,0.0,4.0,67,0.00,,,0.00,meteohub,2013-03-01 12:42:00,
2013-03-01 07:47:00,52.0,41.0,30.01,North,5,0.0,4.0,66,0.00,,,0.00,meteohub,2013-03-01 12:47:00,
2013-03-01 07:52:00,52.0,41.0,30.01,North,5,1.0,6.0,66,0.00,,,0.00,meteohub,2013-03-01 12:52:00,
2013-03-01 07:57:00,52.2,40.3,30.01,North,5,3.0,6.0,64,0.00,,,0.00,meteohub,2013-03-01 12:57:00,
2013-03-01 08:02:00,52.5,40.3,30.01,North,0,1.0,4.0,63,0.00,,,0.00,meteohub,2013-03-01 13:02:00,
2013-03-01 08:07:00,52.9,39.7,30.01,North,5,1.0,4.0,61,0.00,,,0.00,meteohub,2013-03-01 13:07:00,
2013-03-01 08:12:00,53.2,39.7,30.01,NNE,20,0.0,5.0,60,0.00,,,0.00,meteohub,2013-03-01 13:12:00,
2013-03-01 08:17:00,53.6,40.1,30.01,NNE,23,0.0,7.0,60,0.00,,,0.00,meteohub,2013-03-01 13:17:00,
2013-03-01 08:22:00,54.0,39.0,30.02,NNE,19,3.0,7.0,57,0.00,,,0.00,meteohub,2013-03-01 13:22:00,
2013-03-01 08:27:00,54.0,39.0,30.01,NE,35,4.0,7.0,57,0.00,,,0.00,meteohub,2013-03-01 13:27:00,
2013-03-01 08:32:00,54.1,38.8,30.01,North,355,2.0,7.0,56,0.00,,,0.00,meteohub,2013-03-01 13:32:00,
2013-03-01 08:37:00,54.7,39.4,30.01,North,5,1.0,7.0,56,0.00,,,0.00,meteohub,2013-03-01 13:37:00,
2013-03-01 08:42:00,55.0,39.6,30.02,North,5,0.0,7.0,56,0.00,,,0.00,meteohub,2013-03-01 13:42:00,
2013-03-01 08:47:00,55.0,39.2,30.02,NNE,30,1.0,7.0,55,0.00,,,0.00,meteohub,2013-03-01 13:47:00,
2013-03-01 08:52:00,55.0,39.2,30.02,North,5,1.0,7.0,55,0.00,,,0.00,meteohub,2013-03-01 13:52:00,
2013-03-01 08:57:00,55.0,39.6,30.02,NNE,31,2.0,7.0,56,0.00,,,0.00,meteohub,2013-03-01 13:57:00,
2013-03-01 09:02:00,55.2,39.7,30.02,NNE,24,3.0,8.0,56,0.00,,,0.00,meteohub,2013-03-01 14:02:00,
2013-03-01 09:07:00,55.2,40.3,30.02,NE,42,3.0,8.0,57,0.00,,,0.00,meteohub,2013-03-01 14:07:00,
2013-03-01 09:12:00,55.2,40.6,30.02,NNE,24,0.0,9.0,58,0.00,,,0.00,meteohub,2013-03-01 14:12:00,
2013-03-01 09:17:00,55.4,40.8,30.02,NNE,25,4.0,9.0,58,0.00,,,0.00,meteohub,2013-03-01 14:17:00,
2013-03-01 09:22:00,55.8,41.2,30.02,NNE,25,0.0,9.0,58,0.00,,,0.00,meteohub,2013-03-01 14:22:00,
2013-03-01 09:27:00,55.9,41.4,30.02,North,5,2.0,6.0,58,0.00,,,0.00,meteohub,2013-03-01 14:27:00,
2013-03-01 09:32:00,55.9,41.4,30.02,North,5,0.0,6.0,58,0.00,,,0.00,meteohub,2013-03-01 14:32:00,
2013-03-01 09:37:00,55.9,41.4,30.02,NNE,15,2.0,6.0,58,0.00,,,0.00,meteohub,2013-03-01 14:37:00,
2013-03-01 09:42:00,55.9,41.9,30.02,NNE,24,0.0,7.0,59,0.00,,,0.00,meteohub,2013-03-01 14:42:00,
2013-03-01 09:47:00,56.1,41.9,30.03,NNE,21,0.0,7.0,59,0.00,,,0.00,meteohub,2013-03-01 14:47:00,
2013-03-01 09:52:00,56.5,42.3,30.03,NE,49,0.0,8.0,59,0.00,,,0.00,meteohub,2013-03-01 14:52:00,
2013-03-01 09:57:00,56.8,42.6,30.03,NE,53,1.0,8.0,59,0.00,,,0.00,meteohub,2013-03-01 14:57:00,
2013-03-01 10:02:00,57.0,42.8,30.03,NE,42,0.0,8.0,59,0.00,,,0.00,meteohub,2013-03-01 15:02:00,
2013-03-01 10:07:00,57.0,42.4,30.03,NE,36,2.0,7.0,58,0.00,,,0.00,meteohub,2013-03-01 15:07:00,
2013-03-01 10:12:00,56.8,42.3,30.04,NNE,26,0.0,7.0,58,0.00,,,0.00,meteohub,2013-03-01 15:12:00,
2013-03-01 10:17:00,57.0,42.4,30.04,NNE,26,0.0,6.0,58,0.00,,,0.00,meteohub,2013-03-01 15:17:00,
2013-03-01 10:22:00,57.6,43.0,30.04,NNE,32,7.0,7.0,58,0.00,,,0.00,meteohub,2013-03-01 15:22:00,
2013-03-01 10:27:00,58.1,43.0,30.04,North,355,1.0,7.0,57,0.00,,,0.00,meteohub,2013-03-01 15:27:00,
2013-03-01 10:32:00,58.3,43.2,30.04,North,355,0.0,7.0,57,0.00,,,0.00,meteohub,2013-03-01 15:32:00,
2013-03-01 10:37:00,58.6,43.0,30.04,WNW,294,1.0,7.0,56,0.00,,,0.00,meteohub,2013-03-01 15:37:00,
2013-03-01 10:42:00,59.0,43.7,30.03,North,0,5.0,6.0,57,0.00,,,0.00,meteohub,2013-03-01 15:42:00,
2013-03-01 10:47:00,59.2,43.9,30.03,NNE,19,2.0,8.0,57,0.00,,,0.00,meteohub,2013-03-01 15:47:00,
2013-03-01 10:52:00,59.2,44.4,30.03,NNW,346,0.0,8.0,58,0.00,,,0.00,meteohub,2013-03-01 15:52:00,
2013-03-01 10:57:00,59.4,44.6,30.03,NNE,14,0.0,8.0,58,0.00,,,0.00,meteohub,2013-03-01 15:57:00,
2013-03-01 11:02:00,59.4,44.1,30.03,NNW,348,0.0,6.0,57,0.00,,,0.00,meteohub,2013-03-01 16:02:00,
2013-03-01 11:07:00,59.4,44.1,30.04,NNW,327,1.0,6.0,57,0.00,,,0.00,meteohub,2013-03-01 16:07:00,
2013-03-01 11:12:00,59.2,44.4,30.03,NNW,327,2.0,6.0,58,0.00,,,0.00,meteohub,2013-03-01 16:12:00,
2013-03-01 11:17:00,59.2,44.8,30.03,WNW,302,5.0,7.0,59,0.00,,,0.00,meteohub,2013-03-01 16:17:00,
2013-03-01 11:22:00,59.5,45.1,30.03,NW,325,2.0,8.0,59,0.00,,,0.00,meteohub,2013-03-01 16:22:00,
2013-03-01 11:27:00,59.9,45.1,30.03,NW,323,1.0,8.0,58,0.00,,,0.00,meteohub,2013-03-01 16:27:00,
2013-03-01 11:32:00,60.3,45.9,30.03,North,355,1.0,9.0,59,0.00,,,0.00,meteohub,2013-03-01 16:32:00,
2013-03-01 11:37:00,60.8,45.9,30.03,North,350,1.0,9.0,58,0.00,,,0.00,meteohub,2013-03-01 16:37:00,
2013-03-01 11:42:00,60.4,45.1,30.03,West,276,6.0,9.0,57,0.00,,,0.00,meteohub,2013-03-01 16:42:00,
2013-03-01 11:47:00,60.3,45.5,30.03,NNW,342,4.0,9.0,58,0.00,,,0.00,meteohub,2013-03-01 16:47:00,
2013-03-01 11:52:00,60.1,45.3,30.02,NW,324,1.0,11.0,58,0.00,,,0.00,meteohub,2013-03-01 16:52:00,
2013-03-01 11:57:00,60.6,45.7,30.02,WNW,299,3.0,11.0,58,0.00,,,0.00,meteohub,2013-03-01 16:57:00,
2013-03-01 12:02:00,61.0,45.1,30.02,WNW,302,2.0,11.0,56,0.00,,,0.00,meteohub,2013-03-01 17:02:00,
2013-03-01 12:07:00,60.6,45.7,30.01,NNW,332,0.0,8.0,58,0.00,,,0.00,meteohub,2013-03-01 17:07:00,
2013-03-01 12:12:00,60.6,45.7,30.01,NNW,338,1.0,8.0,58,0.00,,,0.00,meteohub,2013-03-01 17:12:00,
2013-03-01 12:17:00,61.2,45.9,30.01,WNW,294,8.0,8.0,57,0.00,,,0.00,meteohub,2013-03-01 17:17:00,
2013-03-01 12:22:00,60.3,45.5,30.01,WNW,303,2.0,8.0,58,0.00,,,0.00,meteohub,2013-03-01 17:22:00,
2013-03-01 12:28:00,60.3,45.9,30.01,WNW,294,7.0,10.0,59,0.00,,,0.00,meteohub,2013-03-01 17:28:00,
2013-03-01 12:33:00,60.3,45.9,30.01,NW,311,2.0,10.0,59,0.00,,,0.00,meteohub,2013-03-01 17:33:00,
2013-03-01 12:38:00,60.6,45.3,30.01,NNW,334,8.0,10.0,57,0.00,,,0.00,meteohub,2013-03-01 17:38:00,
2013-03-01 12:43:00,60.6,45.3,30.01,NW,312,2.0,8.0,57,0.00,,,0.00,meteohub,2013-03-01 17:43:00,
2013-03-01 12:48:00,60.1,45.3,30.00,WNW,298,0.0,12.0,58,0.00,,,0.00,meteohub,2013-03-01 17:48:00,
2013-03-01 12:53:00,60.1,45.7,30.00,WNW,303,1.0,12.0,59,0.00,,,0.00,meteohub,2013-03-01 17:53:00,
2013-03-01 12:58:00,60.6,45.7,30.00,NNW,329,3.0,12.0,58,0.00,,,0.00,meteohub,2013-03-01 17:58:00,
2013-03-01 13:03:00,60.4,45.7,30.00,WNW,296,1.0,9.0,58,0.00,,,0.00,meteohub,2013-03-01 18:03:00,
2013-03-01 13:08:00,60.3,45.5,30.00,WNW,298,5.0,11.0,58,0.00,,,0.00,meteohub,2013-03-01 18:08:00,
2013-03-01 13:13:00,60.1,45.7,29.99,NNW,332,3.0,12.0,59,0.00,,,0.00,meteohub,2013-03-01 18:13:00,
2013-03-01 13:18:00,60.3,45.9,29.99,NW,313,5.0,13.0,59,0.00,,,0.00,meteohub,2013-03-01 18:18:00,
2013-03-01 13:24:00,60.4,45.7,29.98,NNW,329,2.0,13.0,58,0.00,,,0.00,meteohub,2013-03-01 18:24:00,
2013-03-01 13:29:00,60.4,45.7,29.99,NNW,331,4.0,13.0,58,0.00,,,0.00,meteohub,2013-03-01 18:29:00,
2013-03-01 13:34:00,60.1,45.7,29.98,West,281,5.0,8.0,59,0.00,,,0.00,meteohub,2013-03-01 18:34:00,
2013-03-01 13:39:00,60.1,46.2,29.98,NW,311,4.0,11.0,60,0.00,,,0.00,meteohub,2013-03-01 18:39:00,
2013-03-01 13:45:00,60.3,45.9,29.98,WNW,291,6.0,11.0,59,0.00,,,0.00,meteohub,2013-03-01 18:45:00,
2013-03-01 13:50:00,59.4,45.5,29.98,NW,307,4.0,11.0,60,0.00,,,0.00,meteohub,2013-03-01 18:50:00,
2013-03-01 13:55:00,59.4,45.5,29.98,NNW,333,2.0,13.0,60,0.00,,,0.00,meteohub,2013-03-01 18:55:00,
2013-03-01 14:00:00,59.5,45.7,29.98,NW,313,8.0,13.0,60,0.00,,,0.00,meteohub,2013-03-01 19:00:00,
2013-03-01 14:06:00,59.2,45.3,29.98,NW,317,4.0,13.0,60,0.00,,,0.00,meteohub,2013-03-01 19:06:00,
2013-03-01 14:11:00,59.4,45.5,29.98,WNW,297,6.0,12.0,60,0.00,,,0.00,meteohub,2013-03-01 19:11:00,
2013-03-01 14:16:00,59.4,45.0,29.98,WNW,298,7.0,12.0,59,0.00,,,0.00,meteohub,2013-03-01 19:16:00,
2013-03-01 14:21:00,59.0,45.1,29.98,West,269,8.0,12.0,60,0.00,,,0.00,meteohub,2013-03-01 19:21:00,
2013-03-01 14:26:00,59.4,45.0,29.97,WNW,290,5.0,12.0,59,0.00,,,0.00,meteohub,2013-03-01 19:26:00,
2013-03-01 14:31:00,60.1,45.3,29.98,WNW,293,9.0,9.0,58,0.00,,,0.00,meteohub,2013-03-01 19:31:00,
2013-03-01 14:36:00,59.4,45.5,29.98,NW,324,1.0,12.0,60,0.00,,,0.00,meteohub,2013-03-01 19:36:00,
2013-03-01 14:41:00,60.1,45.7,29.98,NW,324,0.0,12.0,59,0.00,,,0.00,meteohub,2013-03-01 19:41:00,
2013-03-01 14:46:00,61.0,45.7,29.98,NW,313,4.0,12.0,57,0.00,,,0.00,meteohub,2013-03-01 19:46:00,
2013-03-01 14:51:00,61.3,46.0,29.98,NNW,338,4.0,10.0,57,0.00,,,0.00,meteohub,2013-03-01 19:51:00,
2013-03-01 14:57:00,60.8,45.9,29.98,SSW,208,3.0,11.0,58,0.00,,,0.00,meteohub,2013-03-01 19:57:00,
2013-03-01 15:02:00,60.4,45.7,29.98,NW,311,1.0,11.0,58,0.00,,,0.00,meteohub,2013-03-01 20:02:00,
2013-03-01 15:07:00,60.8,45.9,29.98,WNW,296,5.0,11.0,58,0.00,,,0.00,meteohub,2013-03-01 20:07:00,
2013-03-01 15:12:00,61.0,45.1,29.99,NW,325,2.0,9.0,56,0.00,,,0.00,meteohub,2013-03-01 20:12:00,
2013-03-01 15:17:00,60.3,45.0,29.99,NW,311,6.0,12.0,57,0.00,,,0.00,meteohub,2013-03-01 20:17:00,
2013-03-01 15:22:00,60.1,45.3,29.99,NW,307,5.0,13.0,58,0.00,,,0.00,meteohub,2013-03-01 20:22:00,
2013-03-01 15:27:00,59.7,44.4,29.99,WNW,299,5.0,13.0,57,0.00,,,0.00,meteohub,2013-03-01 20:27:00,
2013-03-01 15:32:00,59.5,44.8,29.99,WNW,296,3.0,12.0,58,0.00,,,0.00,meteohub,2013-03-01 20:32:00,
2013-03-01 15:37:00,59.7,45.0,29.99,WNW,296,4.0,11.0,58,0.00,,,0.00,meteohub,2013-03-01 20:37:00,
2013-03-01 15:42:00,59.2,44.4,29.99,NW,317,5.0,11.0,58,0.00,,,0.00,meteohub,2013-03-01 20:42:00,
2013-03-01 15:47:00,58.8,45.0,29.99,WNW,291,4.0,13.0,60,0.00,,,0.00,meteohub,2013-03-01 20:47:00,
2013-03-01 15:52:00,58.8,44.6,29.99,WNW,290,1.0,13.0,59,0.00,,,0.00,meteohub,2013-03-01 20:52:00,
2013-03-01 15:57:00,59.0,44.2,29.98,WNW,302,5.0,12.0,58,0.00,,,0.00,meteohub,2013-03-01 20:57:00,
2013-03-01 16:02:00,58.6,44.4,29.99,WNW,295,5.0,12.0,59,0.00,,,0.00,meteohub,2013-03-01 21:02:00,
2013-03-01 16:07:00,58.6,44.8,29.98,WNW,282,4.0,12.0,60,0.00,,,0.00,meteohub,2013-03-01 21:07:00,
2013-03-01 16:12:00,58.5,44.6,29.99,NW,304,1.0,9.0,60,0.00,,,0.00,meteohub,2013-03-01 21:12:00,
2013-03-01 16:17:00,58.3,44.1,29.98,WNW,289,2.0,9.0,59,0.00,,,0.00,meteohub,2013-03-01 21:17:00,
2013-03-01 16:22:00,58.3,44.4,29.98,NNW,330,4.0,9.0,60,0.00,,,0.00,meteohub,2013-03-01 21:22:00,
2013-03-01 16:27:00,58.3,45.0,29.98,NW,308,4.0,9.0,61,0.00,,,0.00,meteohub,2013-03-01 21:27:00,
2013-03-01 16:32:00,58.3,45.0,29.98,NW,321,4.0,8.0,61,0.00,,,0.00,meteohub,2013-03-01 21:32:00,
2013-03-01 16:37:00,57.9,45.0,29.98,NW,317,2.0,9.0,62,0.00,,,0.00,meteohub,2013-03-01 21:37:00,
2013-03-01 16:42:00,57.7,43.9,29.99,WNW,286,6.0,9.0,60,0.00,,,0.00,meteohub,2013-03-01 21:42:00,
2013-03-01 16:47:00,57.6,44.2,29.99,NW,320,3.0,12.0,61,0.00,,,0.00,meteohub,2013-03-01 21:47:00,
2013-03-01 16:52:00,57.6,44.6,29.99,NW,325,8.0,12.0,62,0.00,,,0.00,meteohub,2013-03-01 21:52:00,
2013-03-01 16:57:00,57.6,43.7,29.99,NW,311,4.0,9.0,60,0.00,,,0.00,meteohub,2013-03-01 21:57:00,
2013-03-01 17:02:00,57.6,43.7,29.99,NW,311,4.0,8.0,60,0.00,,,0.00,meteohub,2013-03-01 22:02:00,
2013-03-01 17:07:00,57.6,43.3,29.98,NW,310,3.0,8.0,59,0.00,,,0.00,meteohub,2013-03-01 22:07:00,
2013-03-01 17:12:00,57.4,43.2,29.98,WNW,302,6.0,7.0,59,0.00,,,0.00,meteohub,2013-03-01 22:12:00,
2013-03-01 17:17:00,57.0,42.4,29.98,NNW,328,5.0,7.0,58,0.00,,,0.00,meteohub,2013-03-01 22:17:00,
2013-03-01 17:22:00,56.8,42.3,29.99,WNW,286,3.0,9.0,58,0.00,,,0.00,meteohub,2013-03-01 22:22:00,
2013-03-01 17:27:00,56.8,42.3,29.99,WNW,284,7.0,9.0,58,0.00,,,0.00,meteohub,2013-03-01 22:27:00,
2013-03-01 17:32:00,56.7,41.5,29.99,NW,310,1.0,9.0,57,0.00,,,0.00,meteohub,2013-03-01 22:32:00,
2013-03-01 17:37:00,56.8,41.7,29.99,WNW,292,1.0,8.0,57,0.00,,,0.00,meteohub,2013-03-01 22:37:00,
2013-03-01 17:43:00,56.8,41.4,29.99,WNW,298,4.0,8.0,56,0.00,,,0.00,meteohub,2013-03-01 22:43:00,
2013-03-01 17:48:00,56.7,41.5,29.99,WNW,300,2.0,8.0,57,0.00,,,0.00,meteohub,2013-03-01 22:48:00,
2013-03-01 17:53:00,56.7,41.5,29.99,NW,307,1.0,7.0,57,0.00,,,0.00,meteohub,2013-03-01 22:53:00,
2013-03-01 17:58:00,56.7,41.5,29.99,NNW,334,3.0,7.0,57,0.00,,,0.00,meteohub,2013-03-01 22:58:00,
2013-03-01 18:03:00,56.7,41.5,30.00,NW,312,2.0,8.0,57,0.00,,,0.00,meteohub,2013-03-01 23:03:00,
2013-03-01 18:08:00,56.5,41.9,30.00,NW,312,4.0,8.0,58,0.00,,,0.00,meteohub,2013-03-01 23:08:00,
2013-03-01 18:13:00,56.5,42.3,30.00,WNW,298,3.0,8.0,59,0.00,,,0.00,meteohub,2013-03-01 23:13:00,
2013-03-01 18:18:00,56.5,42.3,30.00,WNW,300,2.0,8.0,59,0.00,,,0.00,meteohub,2013-03-01 23:18:00,
2013-03-01 18:23:00,56.5,41.9,30.01,WNW,294,4.0,8.0,58,0.00,,,0.00,meteohub,2013-03-01 23:23:00,
2013-03-01 18:28:00,56.1,41.5,30.00,WNW,299,5.0,6.0,58,0.00,,,0.00,meteohub,2013-03-01 23:28:00,
2013-03-01 18:33:00,56.1,41.2,30.01,WNW,295,3.0,8.0,57,0.00,,,0.00,meteohub,2013-03-01 23:33:00,
2013-03-01 18:39:00,56.3,41.2,30.01,NNW,331,5.0,8.0,57,0.00,,,0.00,meteohub,2013-03-01 23:39:00,
2013-03-01 18:44:00,56.3,41.2,30.01,WNW,288,2.0,8.0,57,0.00,,,0.00,meteohub,2013-03-01 23:44:00,
2013-03-01 18:49:00,56.3,40.3,30.02,NW,308,2.0,7.0,55,0.00,,,0.00,meteohub,2013-03-01 23:49:00,
2013-03-01 18:54:00,56.3,38.8,30.02,WNW,303,6.0,7.0,52,0.00,,,0.00,meteohub,2013-03-01 23:54:00,
2013-03-01 18:59:00,56.3,36.9,30.02,NW,304,5.0,12.0,48,0.00,,,0.00,meteohub,2013-03-01 23:59:00,
2013-03-01 19:04:00,56.1,37.2,30.02,NW,318,6.0,12.0,49,0.00,,,0.00,meteohub,2013-03-02 00:04:00,
2013-03-01 19:09:00,56.1,37.8,30.02,WNW,294,4.0,13.0,50,0.00,,,0.00,meteohub,2013-03-02 00:09:00,
2013-03-01 19:14:00,56.1,37.8,30.02,NW,311,4.0,13.0,50,0.00,,,0.00,meteohub,2013-03-02 00:14:00,
2013-03-01 19:20:00,56.1,38.3,30.02,NW,313,4.0,8.0,51,0.00,,,0.00,meteohub,2013-03-02 00:20:00,
2013-03-01 19:25:00,56.1,39.2,30.02,NW,309,4.0,8.0,53,0.00,,,0.00,meteohub,2013-03-02 00:25:00,
2013-03-01 19:30:00,56.1,38.7,30.02,WNW,300,3.0,9.0,52,0.00,,,0.00,meteohub,2013-03-02 00:30:00,
2013-03-01 19:35:00,56.1,39.2,30.02,WNW,298,3.0,11.0,53,0.00,,,0.00,meteohub,2013-03-02 00:35:00,
2013-03-01 19:40:00,56.1,39.7,30.02,WNW,302,2.0,11.0,54,0.00,,,0.00,meteohub,2013-03-02 00:40:00,
2013-03-01 19:45:00,56.1,40.1,30.02,NW,306,3.0,8.0,55,0.00,,,0.00,meteohub,2013-03-02 00:45:00,
2013-03-01 19:50:00,55.9,39.9,30.02,WNW,303,3.0,9.0,55,0.00,,,0.00,meteohub,2013-03-02 00:50:00,
2013-03-01 19:55:00,56.1,40.1,30.02,WNW,299,1.0,9.0,55,0.00,,,0.00,meteohub,2013-03-02 00:55:00,
2013-03-01 20:00:00,56.1,40.1,30.01,NE,53,2.0,8.0,55,0.00,,,0.00,meteohub,2013-03-02 01:00:00,
2013-03-01 20:05:00,55.9,40.5,30.02,WNW,284,6.0,8.0,56,0.00,,,0.00,meteohub,2013-03-02 01:05:00,
2013-03-01 20:10:00,55.9,41.0,30.02,WNW,290,6.0,10.0,57,0.00,,,0.00,meteohub,2013-03-02 01:10:00,
2013-03-01 20:16:00,55.9,41.4,30.02,WNW,302,5.0,10.0,58,0.00,,,0.00,meteohub,2013-03-02 01:16:00,
2013-03-01 20:21:00,55.9,40.5,30.02,WNW,297,4.0,9.0,56,0.00,,,0.00,meteohub,2013-03-02 01:21:00,
2013-03-01 20:26:00,55.9,41.0,30.03,NW,304,4.0,9.0,57,0.00,,,0.00,meteohub,2013-03-02 01:26:00,
2013-03-01 20:31:00,55.9,39.9,30.03,NW,304,5.0,9.0,55,0.00,,,0.00,meteohub,2013-03-02 01:31:00,
2013-03-01 20:36:00,55.9,39.9,30.02,WNW,292,2.0,10.0,55,0.00,,,0.00,meteohub,2013-03-02 01:36:00,
2013-03-01 20:41:00,55.9,38.5,30.02,WNW,292,7.0,11.0,52,0.00,,,0.00,meteohub,2013-03-02 01:41:00,
2013-03-01 20:46:00,55.9,38.1,30.03,WNW,290,2.0,11.0,51,0.00,,,0.00,meteohub,2013-03-02 01:46:00,
2013-03-01 20:51:00,55.9,39.0,30.02,NW,304,7.0,11.0,53,0.00,,,0.00,meteohub,2013-03-02 01:51:00,
2013-03-01 20:56:00,55.9,39.6,30.03,WSW,254,7.0,12.0,54,0.00,,,0.00,meteohub,2013-03-02 01:56:00,
2013-03-01 21:01:00,55.8,39.4,30.02,NW,304,6.0,12.0,54,0.00,,,0.00,meteohub,2013-03-02 02:01:00,
2013-03-01 21:06:00,55.8,39.4,30.03,WNW,296,0.0,12.0,54,0.00,,,0.00,meteohub,2013-03-02 02:06:00,
2013-03-01 21:11:00,55.8,38.8,30.04,NW,318,5.0,12.0,53,0.00,,,0.00,meteohub,2013-03-02 02:11:00,
2013-03-01 21:17:00,55.8,38.8,30.04,WNW,288,11.0,15.0,53,0.00,,,0.00,meteohub,2013-03-02 02:17:00,
2013-03-01 21:22:00,55.8,39.4,30.03,WNW,300,7.0,15.0,54,0.00,,,0.00,meteohub,2013-03-02 02:22:00,
2013-03-01 21:27:00,55.8,39.9,30.03,WNW,297,0.0,12.0,55,0.00,,,0.00,meteohub,2013-03-02 02:27:00,
2013-03-01 21:32:00,55.6,39.7,30.04,North,10,7.0,12.0,55,0.00,,,0.00,meteohub,2013-03-02 02:32:00,
2013-03-01 21:37:00,55.6,40.1,30.03,NW,317,9.0,12.0,56,0.00,,,0.00,meteohub,2013-03-02 02:37:00,
2013-03-01 21:42:00,55.6,40.6,30.04,NW,310,1.0,13.0,57,0.00,,,0.00,meteohub,2013-03-02 02:42:00,
2013-03-01 21:47:00,55.6,40.6,30.03,NW,321,3.0,13.0,57,0.00,,,0.00,meteohub,2013-03-02 02:47:00,
2013-03-01 21:52:00,55.6,40.1,30.04,West,274,3.0,13.0,56,0.00,,,0.00,meteohub,2013-03-02 02:52:00,
2013-03-01 21:57:00,55.6,40.6,30.04,WNW,286,4.0,11.0,57,0.00,,,0.00,meteohub,2013-03-02 02:57:00,
2013-03-01 22:02:00,55.6,40.6,30.04,NW,308,4.0,11.0,57,0.00,,,0.00,meteohub,2013-03-02 03:02:00,
2013-03-01 22:07:00,55.6,40.6,30.03,NW,321,2.0,9.0,57,0.00,,,0.00,meteohub,2013-03-02 03:07:00,
2013-03-01 22:12:00,55.6,40.1,30.03,WNW,302,4.0,9.0,56,0.00,,,0.00,meteohub,2013-03-02 03:12:00,
2013-03-01 22:17:00,55.6,40.1,30.03,WNW,300,4.0,10.0,56,0.00,,,0.00,meteohub,2013-03-02 03:17:00,
2013-03-01 22:22:00,55.8,40.3,30.03,WNW,289,5.0,10.0,56,0.00,,,0.00,meteohub,2013-03-02 03:22:00,
2013-03-01 22:27:00,55.8,40.3,30.03,WNW,295,6.0,10.0,56,0.00,,,0.00,meteohub,2013-03-02 03:27:00,
2013-03-01 22:32:00,55.8,40.3,30.03,WNW,290,1.0,10.0,56,0.00,,,0.00,meteohub,2013-03-02 03:32:00,
2013-03-01 22:37:00,55.8,40.8,30.04,WNW,292,1.0,10.0,57,0.00,,,0.00,meteohub,2013-03-02 03:37:00,
2013-03-01 22:42:00,55.8,40.3,30.04,NW,304,2.0,9.0,56,0.00,,,0.00,meteohub,2013-03-02 03:42:00,
2013-03-01 22:47:00,55.8,40.3,30.04,WNW,286,3.0,8.0,56,0.00,,,0.00,meteohub,2013-03-02 03:47:00,
2013-03-01 22:52:00,55.8,40.3,30.04,WNW,294,1.0,8.0,56,0.00,,,0.00,meteohub,2013-03-02 03:52:00,
2013-03-01 22:57:00,55.8,40.3,30.04,NW,311,2.0,8.0,56,0.00,,,0.00,meteohub,2013-03-02 03:57:00,
2013-03-01 23:02:00,55.6,40.6,30.04,NW,311,0.0,9.0,57,0.00,,,0.00,meteohub,2013-03-02 04:02:00,
2013-03-01 23:07:00,55.6,40.6,30.04,NW,321,3.0,9.0,57,0.00,,,0.00,meteohub,2013-03-02 04:07:00,
2013-03-01 23:12:00,55.6,40.6,30.04,NW,306,5.0,9.0,57,0.00,,,0.00,meteohub,2013-03-02 04:12:00,
2013-03-01 23:17:00,55.6,40.6,30.04,WNW,292,2.0,9.0,57,0.00,,,0.00,meteohub,2013-03-02 04:17:00,
2013-03-01 23:22:00,55.6,40.6,30.04,NW,311,1.0,9.0,57,0.00,,,0.00,meteohub,2013-03-02 04:22:00,
2013-03-01 23:27:00,55.6,40.6,30.04,NW,317,4.0,9.0,57,0.00,,,0.00,meteohub,2013-03-02 04:27:00,
2013-03-01 23:32:00,55.6,40.6,30.04,NW,323,4.0,10.0,57,0.00,,,0.00,meteohub,2013-03-02 04:32:00,
2013-03-01 23:37:00,55.6,40.6,30.03,WNW,293,1.0,10.0,57,0.00,,,0.00,meteohub,2013-03-02 04:37:00,
2013-03-01 23:42:00,55.6,40.6,30.03,WNW,302,1.0,10.0,57,0.00,,,0.00,meteohub,2013-03-02 04:42:00,
2013-03-01 23:47:00,55.6,40.1,30.03,NW,313,6.0,9.0,56,0.00,,,0.00,meteohub,2013-03-02 04:47:00,
2013-03-01 23:52:00,55.6,40.1,30.04,NW,306,3.0,11.0,56,0.00,,,0.00,meteohub,2013-03-02 04:52:00,
2013-03-01 23:57:00,55.6,40.1,30.04,NW,314,1.0,11.0,56,0.00,,,0.00,meteohub,2013-03-02 04:57:00,